TimeEST,TemperatureF,Dew PointF,Humidity,Sea Level PressureIn,VisibilityMPH,Wind Direction,Wind SpeedMPH,Gust SpeedMPH,PrecipitationIn,Events,Conditions,WindDirDegrees,DateUTC
12:10 AM,45.5,22.6,41,30.09,10.0,NNW,3.5,-,N/A,,Clear,330,2013-11-08 05:10:00
12:30 AM,44.6,23.0,43,30.09,10.0,Calm,Calm,-,N/A,,Clear,0,2013-11-08 05:30:00
12:50 AM,43.7,24.3,46,30.10,10.0,Calm,Calm,-,N/A,,Clear,0,2013-11-08 05:50:00
1:10 AM,44.1,23.9,45,30.10,10.0,Calm,Calm,-,N/A,,Clear,0,2013-11-08 06:10:00
1:30 AM,42.6,24.8,49,30.10,10.0,Calm,Calm,-,N/A,,Clear,0,2013-11-08 06:30:00
1:50 AM,39.7,28.2,63,30.10,10.0,Calm,Calm,-,N/A,,Clear,0,2013-11-08 06:50:00
2:05 AM,38.5,29.3,70,30.10,10.0,Calm,Calm,-,N/A,,Clear,0,2013-11-08 07:05:00
2:30 AM,38.5,28.8,68,30.10,10.0,Calm,Calm,-,N/A,,Scattered Clouds,0,2013-11-08 07:30:00
2:50 AM,37.2,28.9,72,30.10,10.0,Calm,Calm,-,N/A,,Clear,0,2013-11-08 07:50:00
3:10 AM,36.5,29.5,76,30.10,10.0,Calm,Calm,-,N/A,,Clear,0,2013-11-08 08:10:00
3:30 AM,36.3,29.8,77,30.10,10.0,Calm,Calm,-,N/A,,Clear,0,2013-11-08 08:30:00
3:50 AM,35.1,30.2,82,30.10,10.0,Calm,Calm,-,N/A,,Clear,0,2013-11-08 08:50:00
4:10 AM,34.9,30.2,83,30.11,10.0,Calm,Calm,-,N/A,,Clear,0,2013-11-08 09:10:00
4:30 AM,34.7,30.2,84,30.11,10.0,Calm,Calm,-,N/A,,Clear,0,2013-11-08 09:30:00
4:50 AM,34.3,30.7,87,30.12,10.0,Calm,Calm,-,N/A,,Clear,0,2013-11-08 09:50:00
5:10 AM,34.0,30.2,86,30.12,10.0,Calm,Calm,-,N/A,,Clear,0,2013-11-08 10:10:00
5:30 AM,33.4,29.8,87,30.12,10.0,Calm,Calm,-,N/A,,Clear,0,2013-11-08 10:30:00
5:50 AM,33.8,30.2,87,30.12,10.0,Calm,Calm,-,N/A,,Clear,0,2013-11-08 10:50:00
6:10 AM,32.9,30.0,89,30.13,10.0,Calm,Calm,-,N/A,,Clear,0,2013-11-08 11:10:00
6:30 AM,32.9,30.6,91,30.14,10.0,Calm,Calm,-,N/A,,Clear,0,2013-11-08 11:30:00
6:50 AM,34.3,30.0,84,30.15,10.0,Calm,Calm,-,N/A,,Clear,0,2013-11-08 11:50:00
7:10 AM,39.4,28.2,64,30.15,10.0,Calm,Calm,-,N/A,,Clear,0,2013-11-08 12:10:00
7:30 AM,41.5,28.2,59,30.15,10.0,SW,3.5,-,N/A,,Clear,230,2013-11-08 12:30:00
7:50 AM,43.7,27.7,53,30.17,10.0,Calm,Calm,-,N/A,,Clear,0,2013-11-08 12:50:00
8:10 AM,45.0,28.4,52,30.17,10.0,Calm,Calm,-,N/A,,Clear,0,2013-11-08 13:10:00
8:30 AM,46.6,28.9,50,30.17,10.0,West,5.8,-,N/A,,Clear,260,2013-11-08 13:30:00
8:50 AM,48.2,28.6,47,30.17,10.0,West,5.8,-,N/A,,Clear,270,2013-11-08 13:50:00
9:10 AM,48.6,28.6,46,30.17,10.0,West,9.2,17.3,N/A,,Clear,280,2013-11-08 14:10:00
9:30 AM,49.6,28.6,44,30.18,10.0,West,6.9,-,N/A,,Clear,280,2013-11-08 14:30:00
9:50 AM,49.5,27.1,42,30.18,10.0,NW,12.7,19.6,N/A,,Scattered Clouds,310,2013-11-08 14:50:00
10:10 AM,50.0,26.6,40,30.18,10.0,NW,15.0,24.2,N/A,,Scattered Clouds,320,2013-11-08 15:10:00
10:30 AM,50.0,24.1,36,30.19,10.0,NW,18.4,24.2,N/A,,Mostly Cloudy,310,2013-11-08 15:30:00
10:50 AM,49.8,24.6,37,30.19,10.0,WNW,15.0,23.0,N/A,,Mostly Cloudy,300,2013-11-08 15:50:00
11:10 AM,51.1,25.0,36,30.19,10.0,WNW,16.1,27.6,N/A,,Scattered Clouds,300,2013-11-08 16:10:00
11:30 AM,52.0,24.6,35,30.19,10.0,WNW,11.5,17.3,N/A,,Mostly Cloudy,290,2013-11-08 16:30:00
11:50 AM,50.7,23.4,34,30.19,10.0,WNW,17.3,24.2,N/A,,Mostly Cloudy,290,2013-11-08 16:50:00
12:10 PM,50.2,23.5,35,30.19,10.0,NW,11.5,19.6,N/A,,Mostly Cloudy,310,2013-11-08 17:10:00
12:30 PM,50.7,23.2,34,30.19,10.0,WNW,13.8,27.6,N/A,,Mostly Cloudy,300,2013-11-08 17:30:00
12:50 PM,51.6,22.3,32,30.19,10.0,NW,16.1,23.0,N/A,,Scattered Clouds,310,2013-11-08 17:50:00
1:10 PM,52.3,22.1,31,30.19,10.0,NW,16.1,27.6,N/A,,Scattered Clouds,310,2013-11-08 18:10:00
1:30 PM,52.2,21.4,30,30.19,10.0,WNW,19.6,26.5,N/A,,Scattered Clouds,300,2013-11-08 18:30:00
1:50 PM,52.5,21.2,29,30.19,10.0,WNW,13.8,25.3,N/A,,Scattered Clouds,290,2013-11-08 18:50:00
2:10 PM,53.2,21.4,29,30.20,10.0,WNW,12.7,20.7,N/A,,Mostly Cloudy,300,2013-11-08 19:10:00
2:30 PM,53.4,19.6,27,30.20,10.0,NNW,17.3,27.6,N/A,,Mostly Cloudy,330,2013-11-08 19:30:00
2:50 PM,51.3,20.1,29,30.20,10.0,NW,12.7,19.6,N/A,,Scattered Clouds,320,2013-11-08 19:50:00
3:10 PM,52.0,20.1,29,30.21,10.0,NNW,11.5,18.4,N/A,,Clear,330,2013-11-08 20:10:00
3:30 PM,51.8,20.1,29,30.21,10.0,NNW,12.7,19.6,N/A,,Clear,330,2013-11-08 20:30:00
3:50 PM,51.3,20.5,30,30.21,10.0,NW,6.9,18.4,N/A,,Clear,320,2013-11-08 20:50:00
4:10 PM,50.9,20.5,30,30.22,10.0,NW,9.2,18.4,N/A,,Clear,320,2013-11-08 21:10:00
4:30 PM,50.0,20.1,31,30.22,10.0,NW,9.2,-,N/A,,Clear,310,2013-11-08 21:30:00
4:50 PM,49.1,21.0,33,30.23,10.0,WNW,6.9,-,N/A,,Clear,300,2013-11-08 21:50:00
5:10 PM,48.7,20.5,33,30.24,10.0,NW,8.1,17.3,N/A,,Clear,320,2013-11-08 22:10:00
5:30 PM,48.2,20.7,34,30.24,10.0,NNW,5.8,-,N/A,,Clear,330,2013-11-08 22:30:00
5:50 PM,47.5,21.0,35,30.25,10.0,NW,4.6,-,N/A,,Clear,320,2013-11-08 22:50:00
6:10 PM,46.6,21.7,37,30.27,10.0,Calm,Calm,-,N/A,,Clear,0,2013-11-08 23:10:00
6:25 PM,46.4,22.1,38,30.27,10.0,WNW,3.5,-,N/A,,Clear,290,2013-11-08 23:25:00
6:50 PM,46.6,22.5,39,30.27,10.0,NW,5.8,-,N/A,,Clear,310,2013-11-08 23:50:00
7:10 PM,46.0,22.1,39,30.28,10.0,Calm,Calm,-,N/A,,Clear,0,2013-11-09 00:10:00
7:25 PM,45.5,22.5,40,30.28,10.0,Calm,Calm,-,N/A,,Clear,0,2013-11-09 00:25:00
7:50 PM,44.8,22.8,42,30.28,10.0,NW,5.8,-,N/A,,Clear,320,2013-11-09 00:50:00
8:10 PM,45.0,23.2,42,30.29,10.0,NW,4.6,-,N/A,,Clear,310,2013-11-09 01:10:00
8:30 PM,44.6,23.4,43,30.29,10.0,NW,4.6,-,N/A,,Clear,310,2013-11-09 01:30:00
8:50 PM,44.8,22.8,42,30.30,10.0,NW,4.6,-,N/A,,Clear,320,2013-11-09 01:50:00
9:10 PM,44.8,23.0,42,30.30,10.0,NW,4.6,-,N/A,,Clear,320,2013-11-09 02:10:00
9:30 PM,42.4,24.6,49,30.31,10.0,Calm,Calm,-,N/A,,Clear,0,2013-11-09 02:30:00
9:50 PM,40.1,26.1,57,30.31,10.0,NNW,4.6,-,N/A,,Clear,340,2013-11-09 02:50:00
10:10 PM,39.4,27.5,62,30.31,10.0,Calm,Calm,-,N/A,,Clear,0,2013-11-09 03:10:00
10:30 PM,37.8,27.5,67,30.32,10.0,Calm,Calm,-,N/A,,Clear,0,2013-11-09 03:30:00
10:50 PM,36.0,28.2,73,30.32,10.0,Calm,Calm,-,N/A,,Clear,0,2013-11-09 03:50:00
11:10 PM,36.1,27.0,69,30.32,10.0,Calm,Calm,-,N/A,,Clear,0,2013-11-09 04:10:00
11:30 PM,34.7,28.8,79,30.33,10.0,Calm,Calm,-,N/A,,Clear,0,2013-11-09 04:30:00
11:55 PM,34.3,28.0,78,30.33,10.0,Calm,Calm,-,N/A,,Clear,0,2013-11-09 04:55:00